Regional Weather Roundup
Issued by NWS

Home | Current Version | Previous Version | Graphics & Text | Print | Product List | Glossary On
Versions: 1 2 3 4 5 6 7 8 9 10 11 12 13 14 15 16 17 18 19 20 21 22 23 24 25 26 27 28 29 30 31 32 33 34 35 36 37 38 39 40 41 42 43 44 45 46 47 48 49 50
000
ASUS43 KDTX 200310
RWRMI
MICHIGAN HOURLY REGIONAL WEATHER ROUNDUP
NATIONAL WEATHER SERVICE DETROIT/PONTIAC MI
1100 PM EDT SUN OCT 19 2014

NOTE: "FAIR" INDICATES FEW OR NO CLOUDS BELOW 12,000 FEET WITH NO
SIGNIFICANT WEATHER AND/OR OBSTRUCTION TO VISIBILITY.

MIZ047>049-052>055-059>063-066>070-074>076-081>083-200400-
SOUTHEAST LOWER MICHIGAN

CITY           SKY/WX    TMP DP  RH WIND       PRES   REMARKS
ADRIAN         CLOUDY    46  37  71 SW6       29.99F
ALMA           CLOUDY    48  38  69 S6        29.93F
ANN ARBOR      CLOUDY    45  35  68 S5        29.97F
CARO           CLOUDY    46  37  71 S5        29.94S
DETROIT CITY   CLOUDY    51  32  48 SW10      29.98F
DETROIT        CLOUDY    47  34  60 S8        29.99F
FLINT          CLOUDY    49  36  61 SW6       29.96S
GROSSE ILE     MOCLDY    50  36  57 S9        29.98F
HILLSDALE      CLOUDY    48  37  67 S5        29.98S
HOWELL         CLOUDY    46  36  67 S6        29.95F

CITY           SKY/WX    TMP DP  RH WIND       PRES   REMARKS
JACKSON        MOCLDY    48  37  65 SW9       29.96F
LAMBERTVILLE   CLOUDY    48  34  57 SW3       30.00F
LANSING        MOCLDY    48  37  65 SW9       29.95F
LAPEER         CLOUDY    45  36  69 SW6       29.95F
MASON          MOCLDY    46  37  71 CALM      29.95F
MONROE         MOCLDY    46  36  66 S5        29.98F
MT. CLEMENS    CLOUDY    47  32  55 S8        29.95F
PONTIAC        CLOUDY    46  34  62 S6        29.95F
PORT HOPE        N/A     46  35  65 VRB5      29.93S
PORT HURON     MOCLDY    43  37  81 CALM      29.97F
TRI CITIES     CLOUDY    49  39  68 SW8       29.93F
TROY           MOCLDY    49  31  51 S7        29.99F
SAGINAW HB     CLOUDY    50  36  57 SW9       29.93S
$$
MIZ043>046-050>051-056>058-064>065-071>073-077>080-200400-
SOUTHWEST LOWER MICHIGAN

CITY           SKY/WX    TMP DP  RH WIND       PRES   REMARKS
BATTLE CREEK   PTCLDY    48  38  68 SW12      29.96F
BENTON HARBOR  PTCLDY    48  40  73 S8        29.94F
BIG RAPIDS     CLOUDY    47  44  87 S5        29.90S
COLDWATER      PTCLDY    49  38  68 SW7       29.97F
FREMONT        CLOUDY    46  42  84 CALM      29.90F
HOLLAND        PTCLDY    48  40  73 S6        29.94S
GRAND RAPIDS   CLOUDY    49  39  68 SW10      29.94S
IONIA          CLOUDY    48  38  70 SW6       29.93S
KALAMAZOO      PTCLDY    47  39  74 S9        29.96F
LUDINGTON      RAIN      51  48  89 SW13G18   29.89S
MARSHALL       PTCLDY    48  37  66 SW8       29.96S
MOUNT PLEASANT CLOUDY    47  38  68 S6        29.92S
MUSKEGON       CLOUDY    54  45  71 SW16      29.91F
SOUTH HAVEN    PTCLDY    50  42  73 SW8       29.94S
$$
MIZ016>042-200400-
NORTHERN LOWER MICHIGAN

CITY           SKY/WX    TMP DP  RH WIND       PRES   REMARKS
ALPENA         CLOUDY    47  38  71 S5        29.89F
BEAVER ISLAND  CLOUDY    49  46  88 S10G23    29.80F
BELLAIRE       LGT RAIN  46  42  88 S6        29.86F
CADILLAC       CLOUDY    46  42  88 SW10      29.86F
CHARLEVOIX     CLOUDY    47  45  90 S10G16    29.85F
FRANKFORT      CLOUDY    52  45  76 S14G21    29.84F
GAYLORD        LGT RAIN  43  39  86 SW9       29.85F
GRAYLING       RAIN      44  41  89 S6        29.88F
HARBOR SPRINGS CLOUDY    47  42  81 S6        29.84F
HOUGHTON LAKE  CLOUDY    45  40  82 S8        29.89F
MANISTEE       CLOUDY    52  43  71 SW9G17    29.87F
OSCODA         CLOUDY    48  38  69 SW8       29.91F
PELLSTON       CLOUDY    47  41  80 S7        29.84F
TRAVERSE CITY  CLOUDY    48  43  82 VRB6      29.84F
$$
MIZ007>008-015-200400-
EASTERN UPPER MICHIGAN

CITY           SKY/WX    TMP DP  RH WIND       PRES   REMARKS
KINROSS        CLOUDY    43  43 100 SE6       29.82F
MACKINAC ISLAN CLOUDY    47  40  76 S8        29.82F
NEWBERRY       CLOUDY    46  45  96 S14G23    29.77F FOG
S. S. MARIE    LGT RAIN  43  41  93 SE8       29.82F
MUNISING         N/A     50  46  86 S8        29.73F
$$
MIZ004>006-011>014-085-200400-
CENTRAL UPPER MICHIGAN

CITY           SKY/WX    TMP DP  RH WIND       PRES   REMARKS
MANISTIQUE     CLOUDY    50  48  93 SW5       29.76F
ESCANABA       CLOUDY    48  45  87 SW8       29.75F
MENOMINEE      MOCLDY    50  41  71 SW5       29.77F
SAWYER-GWINN   CLOUDY    44  43  94 S5        29.74F
$$
MIZ001>003-009>011-084-200400-
WESTERN UPPER MICHIGAN

CITY           SKY/WX    TMP DP  RH WIND       PRES   REMARKS
IRON MOUNTAIN  CLOUDY    44  42  93 SE3       29.73F
HOUGHTON       CLOUDY    47  42  83 NW8       29.71F
COPPER HARBOR    N/A     47  42  83 VRB6      29.72S
IRONWOOD       CLOUDY    50  45  81 W3        29.72R
$$

ABBREVIATIONS USED IN REMARKS
   TC - TEMPERATURE IN CELSIUS
  WCI - WIND CHILL INDEX
   HX - HEAT INDEX
  VSB - VISIBILITY




USA.gov is the U.S. government's official web portal to all federal, state and local government web resources and services.